Elmira, NY

3:35 PM EDT on September 26, 2017 (GMT -0400)
Elmira-Corning Regional

Weather History for KELM - September, 2013

Change the Weather History Date:

Sunday, September 29, 2013

  Actual Average Record
Temperature  
Mean Temperature 56 °F -  
Max Temperature 72 °F 65 °F 85 °F (1952)
Min Temperature 42 °F 43 °F 26 °F (2000)
Degree Days  
Heating Degree Days 8    
Growing Degree Days 6 (Base 50)    
Moisture  
Dew Point 44 °F    
Average Humidity 86    
Maximum Humidity 100    
Minimum Humidity 38    
Precipitation  
Precipitation 0.00 in - - ()
Sea Level Pressure  
Sea Level Pressure 30.18 in    
Wind  
Wind Speed 1 mph (SSW)    
Max Wind Speed 14 mph    
Max Gust Speed 18 mph    
Visibility 3 miles    
Events Fog    
Averages and records for this station are not official NWS values.
T = Trace of Precipitation, MM = Missing Value Source: NWS Daily Summary

Daily Weather History Graph

Daily Weather History Graph

Search for Another Location

Airport or City:

Trip Planner

Search our weather history database for the weather conditions in past years. The results will help you decide how hot, cold, wet, or windy it might be!

Date:

Astronomy

Sep. 29, 2013 Rise Set
Actual Time 7:02 AM EDT 6:52 PM EDT
Civil Twilight 6:34 AM EDT 7:20 PM EDT
Nautical Twilight 6:02 AM EDT 7:52 PM EDT
Astronomical Twilight 5:29 AM EDT 8:25 PM EDT
Moon 1:37 AM EDT (9/29) 3:51 PM EDT (9/29)
Length of Visible Light 12h 45m
Length of Day
11h 49m
Waning Crescent, 27% of the Moon is Illuminated
Sep 29
Waning Crescent
Oct 4
New
Oct 11
First Quarter
Oct 18
Full
Oct 26
Last Quarter

Hourly Weather History & Observations

Time (EDT) Temp. Dew Point Humidity Pressure Visibility Wind Dir Wind Speed Gust Speed Precip Events Conditions
12:00 AM 44.6 °F 44.6 °F 100% 30.23 in 0.8 mi Calm Calm - N/A   Mist
12:02 AM 46.4 °F 44.6 °F 93% 30.23 in 1.2 mi Calm Calm - N/A   Partly Cloudy
12:04 AM 46.4 °F 44.6 °F 93% 30.23 in 3.0 mi Calm Calm - N/A   Partly Cloudy
12:10 AM 46.4 °F 44.6 °F 93% 30.23 in 1.2 mi Calm Calm - N/A   Partly Cloudy
12:12 AM 44.6 °F 44.6 °F 100% 30.22 in 0.8 mi Calm Calm - N/A   Mist
12:18 AM 44.6 °F 42.8 °F 93% 30.23 in 0.2 mi Calm Calm - N/A Fog Fog
12:25 AM 44.6 °F 42.8 °F 93% 30.23 in 0.2 mi Calm Calm - N/A Fog Fog
12:31 AM 44.6 °F 42.8 °F 93% 30.23 in 1.0 mi Calm Calm - N/A   Mist
12:40 AM 44.6 °F 44.6 °F 100% 30.22 in 0.2 mi Calm Calm - N/A Fog Fog
12:53 AM 42.1 °F 41.0 °F 96% 30.23 in 0.2 mi Calm Calm - N/A Fog Fog
1:14 AM 44.6 °F 42.8 °F 93% 30.22 in 1.2 mi Calm Calm - N/A   Scattered Clouds
1:16 AM 44.6 °F 42.8 °F 93% 30.22 in 5.0 mi Calm Calm - N/A   Scattered Clouds
1:31 AM 42.8 °F 41.0 °F 93% 30.22 in 1.8 mi Calm Calm - N/A   Partly Cloudy
1:37 AM 42.8 °F 39.2 °F 87% 30.22 in 0.8 mi Calm Calm - N/A   Mist
1:53 AM 42.1 °F 41.0 °F 96% 30.22 in 0.5 mi Calm Calm - N/A Fog Fog
2:08 AM 42.8 °F 42.8 °F 100% 30.21 in 2.5 mi Calm Calm - N/A   Overcast
2:13 AM 44.6 °F 42.8 °F 93% 30.21 in 1.0 mi Calm Calm - N/A   Mist
2:18 AM 44.6 °F 42.8 °F 93% 30.21 in 0.2 mi Calm Calm - N/A Fog Fog
2:53 AM 44.1 °F 43.0 °F 96% 30.21 in 0.2 mi Calm Calm - N/A Fog Fog
3:53 AM 45.0 °F 43.0 °F 93% 30.19 in 0.2 mi Calm Calm - N/A Fog Fog
4:28 AM 44.6 °F 42.8 °F 93% 30.19 in 0.2 mi Calm Calm - N/A Fog Fog
4:46 AM 44.6 °F 42.8 °F 93% 30.19 in 0.5 mi Calm Calm - N/A Fog Fog
4:53 AM 44.1 °F 42.1 °F 93% 30.19 in 0.2 mi Calm Calm - N/A Fog Fog
5:02 AM 44.6 °F 42.8 °F 93% 30.19 in 0.2 mi Calm Calm - N/A Fog Fog
5:15 AM 44.6 °F 42.8 °F 93% 30.19 in 0.2 mi Calm Calm - N/A Fog Fog
5:53 AM 44.1 °F 43.0 °F 96% 30.20 in 0.2 mi Calm Calm - N/A Fog Fog
6:00 AM 44.6 °F 42.8 °F 93% 30.19 in 0.5 mi Calm Calm - N/A Fog Fog
6:09 AM 42.8 °F 42.8 °F 100% 30.19 in 0.2 mi Calm Calm - N/A Fog Fog
6:24 AM 44.6 °F 42.8 °F 93% 30.19 in 0.2 mi Calm Calm - N/A Fog Fog
6:53 AM 45.0 °F 43.0 °F 93% 30.20 in 0.2 mi Calm Calm - N/A Fog Fog
7:53 AM 44.1 °F 43.0 °F 96% 30.21 in 0.2 mi Calm Calm - N/A Fog Fog
8:23 AM 44.6 °F 42.8 °F 93% 30.20 in 0.2 mi Calm Calm - N/A Fog Fog
8:46 AM 44.6 °F 44.6 °F 100% 30.20 in 0.2 mi Calm Calm - N/A Fog Fog
8:53 AM 46.0 °F 45.0 °F 96% 30.21 in 0.2 mi Calm Calm - N/A Fog Fog
9:10 AM 46.4 °F 44.6 °F 93% 30.20 in 0.1 mi Calm Calm - N/A Fog Fog
9:42 AM 48.2 °F 46.4 °F 93% 30.19 in 0.2 mi Calm Calm - N/A Fog Fog
9:53 AM 48.0 °F 46.9 °F 96% 30.20 in 0.5 mi Calm Calm - N/A Fog Fog
10:00 AM 48.2 °F 46.4 °F 93% 30.19 in 2.0 mi Calm Calm - N/A   Overcast
10:03 AM 48.2 °F 46.4 °F 93% 30.19 in 2.0 mi Calm Calm - N/A   Mostly Cloudy
10:07 AM 48.2 °F 46.4 °F 93% 30.19 in 2.0 mi Calm Calm - N/A   Scattered Clouds
10:21 AM 50.0 °F 48.2 °F 94% 30.18 in 3.0 mi Calm Calm - N/A   Scattered Clouds
10:33 AM 51.8 °F 50.0 °F 94% 30.18 in 10.0 mi Calm Calm - N/A   Partly Cloudy
10:53 AM 55.9 °F 51.1 °F 84% 30.18 in 10.0 mi Calm Calm - N/A   Clear
11:53 AM 66.9 °F 46.9 °F 49% 30.15 in 10.0 mi SSW 13.8 mph - N/A   Clear
12:53 PM 70.0 °F 46.9 °F 44% 30.13 in 10.0 mi SSW 11.5 mph 18.4 mph N/A   Partly Cloudy
1:53 PM 71.1 °F 46.0 °F 41% 30.10 in 10.0 mi WSW 10.4 mph - N/A   Clear
2:53 PM 71.1 °F 45.0 °F 39% 30.07 in 10.0 mi SSE 9.2 mph - N/A   Clear
3:53 PM 71.1 °F 46.0 °F 41% 30.06 in 10.0 mi South 6.9 mph - N/A   Clear
4:53 PM 71.1 °F 44.1 °F 38% 30.05 in 10.0 mi SW 9.2 mph - N/A   Clear
5:53 PM 68.0 °F 46.0 °F 45% 30.06 in 10.0 mi South 4.6 mph - N/A   Clear
6:53 PM 64.9 °F 45.0 °F 48% 30.06 in 10.0 mi Calm Calm - N/A   Clear
7:53 PM 57.0 °F 46.9 °F 69% 30.07 in 10.0 mi Calm Calm - N/A   Clear
8:53 PM 53.1 °F 46.0 °F 77% 30.08 in 10.0 mi Calm Calm - N/A   Clear
9:53 PM 50.0 °F 45.0 °F 83% 30.09 in 10.0 mi East 3.5 mph - N/A   Clear
10:53 PM 46.0 °F 44.1 °F 93% 30.09 in 10.0 mi Calm Calm - N/A   Clear
11:53 PM 46.9 °F 44.1 °F 90% 30.08 in 10.0 mi Calm Calm - N/A   Partly Cloudy